Weather History for Chino, CA

Change the Weather History Date:

Thursday, February 14, 2013

  Actual Average Record
Temperature  
Mean Temperature 56 °F -  
Max Temperature 78 °F 63 °F 84 °F (2014)
Min Temperature 35 °F 40 °F 35 °F (2004)
Degree Days  
Heating Degree Days 8    
Growing Degree Days 6 (Base 50)    
Moisture  
Dew Point 34 °F    
Average Humidity 54    
Maximum Humidity 97    
Minimum Humidity 15    
Precipitation  
Precipitation 0.00 in - - ()
Sea Level Pressure  
Sea Level Pressure 30.14 in    
Wind  
Wind Speed 2 mph (North)    
Max Wind Speed 8 mph    
Max Gust Speed 22 mph    
Visibility 8 miles    
Events      
Averages and records for this station are not official NWS values.
T = Trace of Precipitation, MM = Missing Value Source: NWS Daily Summary

Daily Weather History Graph

Daily Weather History Graph

Search for Another Location

Airport:

Trip Planner

Search our weather history database for the weather conditions in past years. The results will help you decide how hot, cold, wet, or windy it might be!

Date:

Astronomy

Feb. 14, 2013 Rise Set
Actual Time 6:35 AM PST 5:34 PM PST
Civil Twilight 6:10 AM PST 5:59 PM PST
Nautical Twilight 5:40 AM PST 6:28 PM PST
Astronomical Twilight 5:11 AM PST 6:58 PM PST
Moon 8:56 AM PST (2/14) 10:24 PM PST (2/14)
Length of Visible Light 11h 49m
Length of Day
10h 58m
Waxing Crescent, 22% of the Moon is Illuminated
Feb 14
Waxing Crescent
Feb 17
First Quarter
Feb 25
Full
Mar 4
Last Quarter
Mar 11
New

Hourly Weather History & Observations

Time (PST) Temp. Windchill Dew Point Humidity Pressure Visibility Wind Dir Wind Speed Gust Speed Precip Events Conditions
12:53 AM 39.0 °F - 36.0 °F 89% 30.19 in 5.0 mi Calm Calm - N/A   Clear
1:53 AM 39.0 °F - 36.0 °F 89% 30.17 in 6.0 mi Calm Calm - N/A   Clear
2:53 AM 36.0 °F 33.3 °F 33.1 °F 89% 30.16 in 5.0 mi ENE 3.5 mph - N/A   Clear
3:53 AM 37.9 °F - 35.1 °F 89% 30.15 in 5.0 mi Calm Calm - N/A   Clear
4:53 AM 36.0 °F - 35.1 °F 97% 30.16 in 5.0 mi Calm Calm - N/A   Clear
5:53 AM 37.9 °F - 36.0 °F 93% 30.16 in 5.0 mi Calm Calm - N/A   Clear
6:45 AM 35.6 °F - 33.8 °F 93% 30.15 in 2.5 mi Calm Calm - N/A   Clear
6:53 AM 35.1 °F - 33.1 °F 92% 30.16 in 10.0 mi Calm Calm - N/A   Clear
7:53 AM 43.0 °F - 39.0 °F 86% 30.17 in 10.0 mi Calm Calm - N/A   Clear
8:53 AM 51.1 °F - 39.9 °F 66% 30.17 in 10.0 mi Calm Calm - N/A   Clear
9:53 AM 55.9 °F - 39.9 °F 55% 30.19 in 10.0 mi WNW 5.8 mph - N/A   Clear
10:53 AM 64.9 °F - 37.9 °F 37% 30.18 in - North - - N/A   Clear
11:53 AM 71.1 °F - 39.9 °F 32% 30.14 in 10.0 mi West 6.9 mph - N/A   Partly Cloudy
12:53 PM 75.0 °F - 36.0 °F 24% 30.09 in 10.0 mi Variable 3.5 mph - N/A   Partly Cloudy
1:53 PM 78.1 °F - 28.0 °F 16% 30.06 in 10.0 mi Variable 5.8 mph 17.3 mph N/A   Partly Cloudy
2:53 PM 77.0 °F - 32.0 °F 19% 30.06 in 10.0 mi Variable 3.5 mph - N/A   Partly Cloudy
3:53 PM 75.9 °F - 25.0 °F 15% 30.05 in 10.0 mi NNE 8.1 mph 21.9 mph N/A   Partly Cloudy
4:53 PM 73.0 °F - 23.0 °F 15% 30.06 in 10.0 mi Variable 4.6 mph - N/A   Partly Cloudy
5:53 PM 68.0 °F - 30.9 °F 25% 30.10 in 10.0 mi North 5.8 mph - N/A   Partly Cloudy
6:53 PM 63.0 °F - 37.9 °F 40% 30.13 in 10.0 mi West 3.5 mph - N/A   Scattered Clouds
7:53 PM 57.0 °F - 41.0 °F 55% 30.14 in 10.0 mi Calm Calm - N/A   Scattered Clouds
8:53 PM 62.1 °F - 28.0 °F 28% 30.15 in 10.0 mi Calm Calm - N/A   Clear
9:53 PM 59.0 °F - 28.9 °F 32% 30.17 in 10.0 mi North 4.6 mph - N/A   Clear
10:53 PM 57.9 °F - 28.9 °F 33% 30.17 in 10.0 mi East 5.8 mph - N/A   Clear
11:53 PM 53.1 °F - 28.9 °F 40% 30.16 in 10.0 mi SE 5.8 mph - N/A   Clear